Find Aether 2

NORAD ID: 58299 Int'l Des: 2023-174 Owner: KEPLER Country: CA operational
LEOCIRCULARRETROGRADESSO

Live Position

Loading 3D Globe...

About Aether 2

Description loading...

Upcoming Passes

Passes for default location (London). Set your location on the main map for personalized predictions.

Altitude History

Loading altitude history...

Two-Line Element Set

1 58299U 23174AV 26106.17114975 .00003758 00000-0 11720-3 0 9997
2 58299 97.3908 189.3687 0007613 24.7506 335.4100 15.33839009135729
Epoch: Apr 16, 2026 • Age: 11 hours

Current Status

Altitude 465.1 km
Velocity 7.64 km/s
Sub-Earth Point 39.72°N, 110.29°E
Launch Date Nov 11, 2023
Age 2.4 years
Type other

Technical Details

Classification Payload
Mass 125.00 kg
Dry Mass 125.00 kg
Total Mass 125.00 kg
Length 0.50 m
Diameter 0.50 m
Span 2.00 m
Shape Box + 2 pan
Manufacturer KEPLER/UTIAS
Bus Type Aether
Phase Status In Orbit
Owner/State KEPLER/CA

Most Searched